Home   Weather   Louisville   Past weeks

Flag for USA Past Weather in Louisville, Kentucky, USA — Yesterday and Last 2 Weeks

Now
29 °F

Passing clouds.


Feels Like: 20 °F
Forecast: 24 / 34 °F
Wind: 10 mph from Northwest

Location: Standiford Field

Current Time: Dec 8, 2016 at 7:19:00 am

Latest Report: Dec 8, 2016 at 6:56 am


Visibility: 10 mi

Pressure: 30.30 "Hg

Humidity: 58%

Dew Point: 16 °F

Location of LouisvilleLocation

Past Weather in Louisville — Graph

°F

Louisville Temperature Yesterday

Maximum temperature yesterday: 43 °F (at 2:56 pm)
Minimum temperature yesterday: 33 °F (at 6:56 am)
Average temperature yesterday: 38 °F

High & Low Weather Summary for the Past Weeks

 TemperatureHumidityPressure
High67 °F (Nov 29, 2:56 pm)93% (Nov 23, 8:56 pm)30.45 "Hg (Nov 23, 8:56 pm)
Low29 °F (Nov 27, 6:56 am)22% (Nov 23, 2:56 pm)29.38 "Hg (Nov 28, 7:56 pm)
Average45 °F67%30.06 "Hg
* Reported Nov 23 5:56 am — Dec 8 5:56 am, Louisville, Weather by CustomWeather, © 2016

Note: Actual official high and low records may vary slightly from our data, if they occured in-between our weather recording intervals... More about our weather records

Advertising

Louisville Weather History for the Previous 24 Hours

Scroll right to see more
 ConditionsComfort  
Time TempWeatherWind HumidityBarometerVisibility
5:56 am
Thu, Dec 8
31 °FOvercast.16 mph57%30.29 "Hg10 mi
4:56 am32 °FOvercast.8 mph59%30.27 "Hg10 mi
3:56 am32 °FPassing clouds.10 mph59%30.27 "Hg10 mi
2:56 am33 °FOvercast.8 mph56%30.25 "Hg10 mi
1:56 am33 °FPassing clouds.9 mph58%30.23 "Hg10 mi
12:56 am35 °FOvercast.10 mph54%30.22 "Hg10 mi
11:56 pm
Wed, Dec 7
36 °FOvercast.10 mph54%30.22 "Hg10 mi
10:56 pm36 °FMostly cloudy.9 mph52%30.21 "Hg10 mi
9:56 pm37 °FMostly cloudy.6 mph50%30.21 "Hg10 mi
8:56 pm37 °FMostly cloudy.9 mph50%30.20 "Hg10 mi
7:56 pm39 °FOvercast.7 mph48%30.20 "Hg10 mi
6:56 pm37 °FPartly cloudy.7 mph48%30.20 "Hg10 mi
5:56 pm40 °FPassing clouds.9 mph41%30.16 "Hg10 mi
4:56 pm43 °FPartly sunny.6 mph37%30.16 "Hg10 mi
3:56 pm43 °FPartly sunny.No wind37%30.15 "Hg10 mi
2:56 pm43 °FOvercast.5 mph40%30.15 "Hg10 mi
1:56 pm42 °FMostly cloudy.5 mph43%30.15 "Hg10 mi
12:56 pm42 °FMostly cloudy.No wind43%30.17 "Hg10 mi
11:56 am41 °FPartly sunny.No wind47%30.19 "Hg10 mi
10:56 am40 °FPartly sunny.No wind53%30.22 "Hg10 mi
9:56 am38 °FPassing clouds.5 mph60%30.21 "Hg10 mi
8:56 am36 °FBroken clouds.5 mph70%30.21 "Hg9 mi
7:56 am34 °FScattered clouds.6 mph73%30.19 "Hg8 mi
Weather by CustomWeather, © 2016

See weather overviewHow to use our weather pages